Weather in Aprel

Russia / Tomsk District     56°23′16″N   85°04′19″E
temp.,
°C
wind,
m/s
gust,
m/s
humid.,
%
clouds,
%
prec.,
mm/h
press.,
hPa
HPBL,
m
6 august, fri
fri601:00+13ne009690 0.5 100410
04:00+13se119761 0.0 100411
07:00+14se129686 0.0 100578
10:00+17sse1287100 0.0 1005466
13:00+18s1183100 0.3 1006491
16:00+20ese126897 0.0 1006874
19:00+20ese227252 0.1 1007601
22:00+16ese229493 0.8 100721
7 august, sat
sat701:00+15ese239798 0.8 100769
04:00+15se259849 0.0 1008137
07:00+14ese239746 0.0 1009117
10:00+19se237823 0.0 1009573
13:00+22sse346198 0.3 10091386
16:00+21s358098 1.4 1010739
19:00+20se248999 3.1 1010307
22:00+16ese229594 0.3 101036
8 august, sun
sun801:00+15ese22965 0.3 101030
04:00+15ese22965 0.0 101019
07:00+15ese23965 0.0 101083
10:00+21ese23734 0.0 1011457
13:00+26ese234733 0.0 10101440
16:00+27e234416 0.0 10092080
19:00+24ene366681 0.0 1010216
22:00+19e228444 0.0 101036
9 august, mon
mon901:00+17ene24865 0.0 101058
04:00+16e248816 0.1 100961
07:00+16ene39855 0.1 1009199
10:00+23e465781 0.0 1009450
13:00+27e5740100 0.0 10081560
16:00+28e5739100 0.0 10082077
19:00+25ene255683 0.0 1008160
22:00+19ene227212 0.0 100829
10 august, tue
tue1001:00+18ene22765 0.0 100830
04:00+16ene22815 0.0 100839
07:00+17ene38810 0.0 1008150
10:00+24ene36513 0.0 1008457
13:00+28ene47370 0.0 10081589
16:00+28ene44340 0.0 10071900
19:00+26ne25510 0.0 1007237
22:00+19ene22620 0.0 100717